| time (UTC) | temp C | wind direction | speed KPH | gust KPH | rain 1hr cm | rain 24hr cm | rain mn cm | humidity % | barometer mb |
| 20260509101503 | 15 | 309 | 16.1 | 33.8 | 0.00 | 0.36 | 0.30 | 49 | 991.4 |
| 20260509101003 | 15 | 309 | 16.1 | 32.2 | 0.00 | 0.36 | 0.30 | 49 | 991.4 |
| 20260509100503 | 15 | 311 | 17.7 | 32.2 | 0.00 | 0.36 | 0.30 | 48 | 991.4 |
| 20260509100004 | 15 | 311 | 17.7 | 32.2 | 0.00 | 0.36 | 0.30 | 48 | 991.2 |
| 20260509095503 | 15 | 314 | 17.7 | 30.6 | 0.00 | 0.36 | 0.30 | 48 | 991.3 |
| 20260509095003 | 15 | 315 | 16.1 | 33.8 | 0.00 | 0.36 | 0.30 | 48 | 991.2 |
| 20260509094503 | 15 | 311 | 14.5 | 33.8 | 0.00 | 0.36 | 0.30 | 48 | 991.2 |
| 20260509094003 | 15 | 313 | 14.5 | 32.2 | 0.00 | 0.36 | 0.30 | 48 | 991.1 |
| 20260509093524 | 15 | 314 | 16.1 | 32.2 | 0.00 | 0.36 | 0.30 | 48 | 991.2 |
| 20260509093003 | 15 | 315 | 16.1 | 32.2 | 0.00 | 0.36 | 0.30 | 48 | 991.0 |
| 20260509092503 | 15 | 312 | 16.1 | 30.6 | 0.00 | 0.36 | 0.30 | 48 | 991.0 |
| 20260509092024 | 15 | 306 | 16.1 | 32.2 | 0.00 | 0.36 | 0.30 | 48 | 990.9 |
| 20260509091503 | 15 | 303 | 17.7 | 32.2 | 0.00 | 0.36 | 0.30 | 48 | 990.9 |
| 20260509091003 | 15 | 303 | 17.7 | 29.0 | 0.00 | 0.36 | 0.30 | 48 | 990.9 |
| 20260509090503 | 15 | 304 | 17.7 | 29.0 | 0.00 | 0.36 | 0.30 | 48 | 990.9 |
| 20260509090024 | 15 | 307 | 17.7 | 30.6 | 0.00 | 0.36 | 0.30 | 48 | 990.8 |
| 20260509085503 | 15 | 307 | 16.1 | 30.6 | 0.00 | 0.36 | 0.30 | 48 | 990.8 |
| 20260509085003 | 15 | 306 | 16.1 | 29.0 | 0.00 | 0.36 | 0.30 | 48 | 990.8 |
| 20260509084503 | 15 | 306 | 16.1 | 30.6 | 0.00 | 0.36 | 0.30 | 49 | 990.7 |
| 20260509084003 | 15 | 308 | 16.1 | 30.6 | 0.00 | 0.36 | 0.30 | 49 | 990.8 |
| 20260509083524 | 14 | 309 | 16.1 | 30.6 | 0.00 | 0.36 | 0.30 | 49 | 990.8 |
| 20260509083003 | 14 | 306 | 16.1 | 32.2 | 0.00 | 0.36 | 0.30 | 49 | 990.8 |
| 20260509082503 | 15 | 304 | 16.1 | 32.2 | 0.00 | 0.36 | 0.30 | 49 | 990.8 |
| 20260509082003 | 15 | 305 | 16.1 | 35.4 | 0.00 | 0.36 | 0.30 | 49 | 990.9 |
| 20260509081524 | 15 | 306 | 19.3 | 35.4 | 0.00 | 0.36 | 0.30 | 49 | 990.9 |
| 20260509081003 | 15 | 313 | 20.9 | 33.8 | 0.00 | 0.36 | 0.30 | 49 | 990.9 |
| 20260509080503 | 15 | 315 | 19.3 | 33.8 | 0.00 | 0.36 | 0.30 | 49 | 990.8 |
| 20260509080003 | 15 | 308 | 19.3 | 33.8 | 0.00 | 0.36 | 0.30 | 49 | 990.8 |
| 20260509075503 | 15 | 307 | 19.3 | 35.4 | 0.00 | 0.36 | 0.30 | 49 | 990.8 |
| 20260509075003 | 15 | 311 | 19.3 | 40.2 | 0.00 | 0.36 | 0.30 | 49 | 990.7 |
| 20260509074524 | 15 | 309 | 17.7 | 40.2 | 0.00 | 0.36 | 0.30 | 49 | 990.6 |
| 20260509074003 | 14 | 308 | 17.7 | 38.6 | 0.00 | 0.36 | 0.30 | 49 | 990.4 |
| 20260509073503 | 14 | 312 | 16.1 | 32.2 | 0.00 | 0.36 | 0.30 | 49 | 990.3 |
| 20260509073003 | 14 | 315 | 16.1 | 32.2 | 0.00 | 0.36 | 0.30 | 49 | 990.1 |
| 20260509072503 | 14 | 319 | 16.1 | 32.2 | 0.00 | 0.36 | 0.30 | 50 | 990.2 |
| 20260509072003 | 14 | 319 | 14.5 | 29.0 | 0.00 | 0.36 | 0.30 | 50 | 990.0 |
| 20260509071503 | 14 | 321 | 14.5 | 37.0 | 0.00 | 0.36 | 0.30 | 50 | 990.0 |
| 20260509071024 | 14 | 326 | 14.5 | 37.0 | 0.00 | 0.36 | 0.30 | 50 | 990.0 |
| 20260509070503 | 14 | 326 | 14.5 | 27.4 | 0.00 | 0.36 | 0.30 | 51 | 990.0 |
| 20260509070003 | 13 | 324 | 11.3 | 27.4 | 0.00 | 0.36 | 0.30 | 52 | 990.2 |
| 20260509065503 | 13 | 329 | 8.0 | 25.7 | 0.00 | 0.36 | 0.30 | 54 | 990.0 |
| 20260509065003 | 13 | 339 | 8.0 | 25.7 | 0.00 | 0.36 | 0.30 | 57 | 989.9 |
| 20260509064503 | 13 | 344 | 9.7 | 22.5 | 0.00 | 0.36 | 0.30 | 61 | 989.9 |
| 20260509064025 | 13 | 353 | 11.3 | 22.5 | 0.00 | 0.36 | 0.30 | 62 | 989.9 |
| 20260509063524 | 13 | 354 | 14.5 | 25.7 | 0.00 | 0.36 | 0.30 | 62 | 989.9 |
| 20260509063024 | 13 | 348 | 16.1 | 37.0 | 0.00 | 0.36 | 0.30 | 61 | 989.8 |
| 20260509062524 | 13 | 346 | 11.3 | 37.0 | 0.00 | 0.36 | 0.30 | 57 | 989.8 |
| 20260509062024 | 13 | 343 | 8.0 | 32.2 | 0.00 | 0.36 | 0.30 | 60 | 989.7 |
| 20260509061524 | 12 | 347 | 8.0 | 25.7 | 0.00 | 0.36 | 0.30 | 63 | 989.8 |
| 20260509061024 | 12 | 347 | 8.0 | 25.7 | 0.00 | 0.36 | 0.30 | 65 | 989.7 |
| 20260509060503 | 12 | 356 | 4.8 | 17.7 | 0.00 | 0.36 | 0.30 | 66 | 989.8 |
| 20260509060003 | 12 | 21 | 3.2 | 17.7 | 0.00 | 0.36 | 0.30 | 69 | 989.7 |
| 20260509055503 | 12 | 58 | 4.8 | 6.4 | 0.00 | 0.36 | 0.30 | 70 | 989.7 |
| 20260509055003 | 12 | 35 | 6.4 | 12.9 | 0.00 | 0.36 | 0.30 | 73 | 989.8 |
| 20260509054503 | 12 | 51 | 8.0 | 20.9 | 0.00 | 0.36 | 0.30 | 74 | 989.7 |
| 20260509054024 | 12 | 68 | 8.0 | 20.9 | 0.00 | 0.36 | 0.30 | 75 | 989.7 |
| 20260509053503 | 12 | 96 | 6.4 | 20.9 | 0.00 | 0.36 | 0.30 | 77 | 989.7 |
| 20260509053003 | 13 | 135 | 4.8 | 12.9 | 0.00 | 0.38 | 0.30 | 77 | 989.7 |
| 20260509052503 | 13 | 113 | 4.8 | 11.3 | 0.00 | 0.38 | 0.30 | 76 | 989.7 |
| 20260509052003 | 13 | 96 | 4.8 | 9.7 | 0.00 | 0.38 | 0.30 | 75 | 989.8 |
| 20260509051503 | 13 | 105 | 4.8 | 14.5 | 0.00 | 0.43 | 0.30 | 75 | 989.9 |
| 20260509051024 | 13 | 104 | 4.8 | 14.5 | 0.00 | 0.46 | 0.30 | 75 | 989.8 |
| 20260509050503 | 13 | 75 | 8.0 | 14.5 | 0.00 | 0.51 | 0.30 | 73 | 989.7 |
| 20260509050003 | 13 | 38 | 12.9 | 19.3 | 0.00 | 0.58 | 0.30 | 72 | 989.7 |
| 20260509045503 | 14 | 347 | 12.9 | 29.0 | 0.00 | 0.61 | 0.30 | 68 | 989.8 |
| 20260509045003 | 15 | 326 | 14.5 | 29.0 | 0.00 | 0.64 | 0.30 | 46 | 989.8 |
| 20260509044503 | 15 | 322 | 16.1 | 32.2 | 0.00 | 0.64 | 0.30 | 48 | 989.9 |
| 20260509044003 | 15 | 321 | 14.5 | 32.2 | 0.00 | 0.64 | 0.30 | 48 | 989.9 |
| 20260509043524 | 16 | 318 | 12.9 | 30.6 | 0.00 | 0.66 | 0.30 | 47 | 989.9 |
| 20260509043003 | 16 | 316 | 12.9 | 22.5 | 0.00 | 0.66 | 0.30 | 48 | 989.9 |
| 20260509042503 | 16 | 325 | 11.3 | 24.1 | 0.00 | 0.69 | 0.30 | 48 | 990.0 |
| 20260509042004 | 16 | 323 | 9.7 | 24.1 | 0.00 | 0.71 | 0.30 | 48 | 990.0 |
| 20260509041503 | 16 | 309 | 9.7 | 20.9 | 0.00 | 0.76 | 0.30 | 49 | 990.1 |
| 20260509041024 | 16 | 312 | 9.7 | 20.9 | 0.00 | 0.79 | 0.30 | 48 | 990.0 |
| 20260509040503 | 16 | 315 | 6.4 | 20.9 | 0.00 | 0.81 | 0.30 | 49 | 990.0 |
| 20260509040004 | 16 | 327 | 4.8 | 20.9 | 0.00 | 0.89 | 0.30 | 52 | 990.0 |
| 20260509035503 | 16 | 42 | 8.0 | 11.3 | 0.00 | 0.99 | 0.30 | 64 | 989.9 |
| 20260509035003 | 16 | 45 | 11.3 | 16.1 | 0.00 | 1.02 | 0.30 | 70 | 989.9 |
| 20260509034503 | 17 | 348 | 12.9 | 22.5 | 0.00 | 1.09 | 0.30 | 59 | 989.9 |
| 20260509034003 | 17 | 328 | 12.9 | 25.7 | 0.00 | 1.12 | 0.30 | 46 | 989.9 |
| 20260509033524 | 17 | 333 | 14.5 | 25.7 | 0.00 | 1.12 | 0.30 | 49 | 990.0 |
| 20260509033003 | 17 | 326 | 11.3 | 27.4 | 0.00 | 1.12 | 0.30 | 49 | 989.9 |
| 20260509032503 | 17 | 313 | 6.4 | 27.4 | 0.00 | 1.12 | 0.30 | 48 | 990.0 |
| 20260509032003 | 17 | 322 | 4.8 | 16.1 | 0.00 | 1.14 | 0.30 | 53 | 989.9 |
| 20260509031503 | 17 | 360 | 3.2 | 16.1 | 0.00 | 1.14 | 0.30 | 58 | 989.9 |
| 20260509031004 | 17 | 37 | 4.8 | 9.7 | 0.00 | 1.14 | 0.30 | 66 | 989.8 |
| 20260509030503 | 17 | 44 | 6.4 | 9.7 | 0.00 | 1.14 | 0.30 | 71 | 989.8 |
| 20260509030003 | 17 | 60 | 8.0 | 12.9 | 0.00 | 1.17 | 0.30 | 74 | 989.8 |
| 20260509025503 | 16 | 55 | 9.7 | 14.5 | 0.00 | 1.17 | 0.30 | 74 | 989.8 |
| 20260509025003 | 16 | 54 | 9.7 | 16.1 | 0.00 | 1.19 | 0.30 | 76 | 989.7 |
| 20260509024503 | 16 | 63 | 8.0 | 16.1 | 0.00 | 1.19 | 0.30 | 76 | 989.6 |
| 20260509024024 | 16 | 67 | 8.0 | 16.1 | 0.00 | 1.19 | 0.30 | 76 | 989.6 |
| 20260509023503 | 16 | 66 | 9.7 | 16.1 | 0.00 | 1.19 | 0.30 | 78 | 989.6 |
| 20260509023004 | 15 | 66 | 9.7 | 19.3 | 0.00 | 1.19 | 0.30 | 77 | 989.7 |
| 20260509022503 | 15 | 68 | 9.7 | 19.3 | 0.00 | 1.19 | 0.30 | 79 | 989.7 |
| 20260509022003 | 15 | 68 | 9.7 | 17.7 | 0.00 | 1.19 | 0.30 | 78 | 989.8 |
| 20260509021503 | 15 | 67 | 9.7 | 16.1 | 0.00 | 1.19 | 0.30 | 79 | 989.7 |
| 20260509021004 | 15 | 71 | 8.0 | 16.1 | 0.00 | 1.19 | 0.30 | 79 | 989.8 |
| 20260509020503 | 15 | 68 | 8.0 | 16.1 | 0.00 | 1.22 | 0.30 | 78 | 989.9 |
| 20260509020003 | 15 | 59 | 8.0 | 14.5 | 0.00 | 1.24 | 0.30 | 79 | 990.1 |
| 20260509015504 | 15 | 70 | 8.0 | 14.5 | 0.00 | 1.27 | 0.30 | 79 | 990.1 |
| 20260509015003 | 15 | 76 | 8.0 | 14.5 | 0.00 | 1.27 | 0.30 | 80 | 990.2 |
| 20260509014503 | 15 | 72 | 8.0 | 14.5 | 0.00 | 1.27 | 0.30 | 79 | 990.3 |
| 20260509014003 | 15 | 68 | 6.4 | 14.5 | 0.00 | 1.27 | 0.30 | 79 | 990.3 |
| 20260509013524 | 15 | 68 | 6.4 | 12.9 | 0.00 | 1.27 | 0.30 | 78 | 990.4 |
| 20260509013003 | 15 | 79 | 6.4 | 12.9 | 0.00 | 1.27 | 0.30 | 81 | 990.3 |
| 20260509012524 | 15 | 81 | 8.0 | 12.9 | 0.00 | 1.27 | 0.30 | 80 | 990.4 |
| 20260509012024 | 15 | 70 | 8.0 | 16.1 | 0.00 | 1.27 | 0.30 | 81 | 990.5 |
| 20260509011503 | 15 | 70 | 8.0 | 16.1 | 0.00 | 1.27 | 0.30 | 80 | 990.5 |
| 20260509011003 | 15 | 66 | 8.0 | 16.1 | 0.00 | 1.27 | 0.30 | 80 | 990.6 |
| 20260509010503 | 15 | 61 | 6.4 | 14.5 | 0.00 | 1.27 | 0.30 | 81 | 990.7 |
| 20260509010004 | 15 | 68 | 4.8 | 14.5 | 0.00 | 1.27 | 0.30 | 80 | 990.7 |
| 20260509005503 | 14 | 77 | 4.8 | 12.9 | 0.00 | 1.27 | 0.30 | 81 | 990.8 |
| 20260509005004 | 14 | 82 | 4.8 | 9.7 | 0.00 | 1.27 | 0.30 | 82 | 990.9 |
| 20260509004503 | 14 | 74 | 4.8 | 12.9 | 0.00 | 1.27 | 0.30 | 82 | 991.0 |
| 20260509004003 | 13 | 70 | 6.4 | 12.9 | 0.00 | 1.27 | 0.30 | 83 | 991.1 |
| 20260509003503 | 13 | 75 | 6.4 | 11.3 | 0.00 | 1.27 | 0.30 | 81 | 991.2 |
| 20260509003025 | 13 | 76 | 6.4 | 12.9 | 0.00 | 1.27 | 0.30 | 81 | 991.2 |
| 20260509002503 | 13 | 75 | 6.4 | 12.9 | 0.00 | 1.27 | 0.30 | 81 | 991.2 |
| 20260509002004 | 14 | 68 | 6.4 | 11.3 | 0.00 | 1.27 | 0.30 | 80 | 991.4 |
| 20260509001503 | 14 | 67 | 6.4 | 11.3 | 0.00 | 1.27 | 0.30 | 82 | 991.5 |
| 20260509001003 | 14 | 68 | 6.4 | 11.3 | 0.00 | 1.27 | 0.30 | 82 | 991.5 |
| 20260509000502 | 13 | 71 | 4.8 | 11.3 | 0.00 | 1.27 | 0.30 | 83 | 991.6 |
| 20260509000002 | 13 | 72 | 4.8 | 11.3 | 0.00 | 1.27 | 0.30 | 83 | 991.6 |
| 20260508235502 | 13 | 67 | 4.8 | 8.0 | 0.00 | 1.27 | 0.30 | 84 | 991.7 |
| 20260508235002 | 13 | 74 | 3.2 | 9.7 | 0.00 | 1.27 | 0.30 | 84 | 991.8 |
| 20260508234502 | 13 | 87 | 3.2 | 9.7 | 0.00 | 1.27 | 0.30 | 83 | 991.8 |
| 20260508234002 | 13 | 96 | 3.2 | 9.7 | 0.00 | 1.27 | 0.30 | 83 | 991.8 |
| 20260508233502 | 13 | 112 | 3.2 | 11.3 | 0.00 | 1.27 | 0.30 | 84 | 992.0 |
| 20260508233002 | 12 | 114 | 3.2 | 11.3 | 0.00 | 1.27 | 0.30 | 84 | 992.0 |
| 20260508232503 | 12 | 102 | 3.2 | 6.4 | 0.00 | 1.27 | 0.30 | 84 | 992.1 |
| 20260508232003 | 12 | 103 | 3.2 | 6.4 | 0.00 | 1.27 | 0.30 | 85 | 992.0 |
| 20260508231502 | 12 | 103 | 3.2 | 6.4 | 0.00 | 1.27 | 0.30 | 84 | 992.0 |
| 20260508231003 | 12 | 101 | 3.2 | 6.4 | 0.00 | 1.27 | 0.30 | 84 | 991.9 |
| 20260508230523 | 12 | 111 | 3.2 | 8.0 | 0.00 | 1.27 | 0.30 | 85 | 992.0 |
| 20260508230003 | 12 | 120 | 3.2 | 8.0 | 0.00 | 1.27 | 0.30 | 85 | 991.9 |
| 20260508225503 | 12 | 123 | 3.2 | 8.0 | 0.00 | 1.27 | 0.30 | 84 | 991.9 |
| 20260508225002 | 12 | 135 | 4.8 | 8.0 | 0.00 | 1.27 | 0.30 | 85 | 991.9 |
| 20260508224503 | 12 | 152 | 4.8 | 8.0 | 0.00 | 1.27 | 0.30 | 85 | 991.9 |
| 20260508224002 | 12 | 173 | 4.8 | 8.0 | 0.00 | 1.27 | 0.30 | 85 | 992.1 |
| 20260508223502 | 12 | 182 | 4.8 | 11.3 | 0.00 | 1.27 | 0.30 | 85 | 992.1 |
| 20260508223024 | 12 | 181 | 4.8 | 11.3 | 0.00 | 1.27 | 0.30 | 85 | 992.2 |
| 20260508222502 | 12 | 178 | 6.4 | 9.7 | 0.00 | 1.27 | 0.30 | 86 | 992.1 |
| 20260508222002 | 12 | 194 | 4.8 | 11.3 | 0.00 | 1.27 | 0.30 | 86 | 992.1 |
| 20260508221502 | 12 | 213 | 4.8 | 12.9 | 0.00 | 1.27 | 0.30 | 86 | 992.1 |
| 20260508221002 | 12 | 213 | 4.8 | 12.9 | 0.00 | 1.27 | 0.30 | 86 | 992.3 |
| 20260508220502 | 12 | 202 | 3.2 | 11.3 | 0.00 | 1.27 | 0.30 | 86 | 992.2 |
| 20260508220002 | 12 | 216 | 1.6 | 11.3 | 0.00 | 1.27 | 0.30 | 86 | 992.2 |
| 20260508215523 | 12 | 10 | 1.6 | 4.8 | 0.00 | 1.27 | 0.30 | 86 | 992.0 |
| 20260508215003 | 12 | 11 | 3.2 | 4.8 | 0.00 | 1.27 | 0.30 | 86 | 991.8 |
| 20260508214523 | 12 | 4 | 4.8 | 6.4 | 0.00 | 1.27 | 0.30 | 86 | 991.5 |
| 20260508214002 | 12 | 344 | 4.8 | 9.7 | 0.00 | 1.27 | 0.30 | 86 | 991.7 |
| 20260508213502 | 12 | 339 | 4.8 | 9.7 | 0.00 | 1.27 | 0.30 | 86 | 991.6 |
| 20260508213003 | 12 | 331 | 3.2 | 9.7 | 0.00 | 1.27 | 0.30 | 86 | 991.5 |
| 20260508212503 | 12 | 321 | 1.6 | 6.4 | 0.00 | 1.27 | 0.30 | 86 | 991.7 |
| 20260508212024 | 12 | 314 | 1.6 | 4.8 | 0.00 | 1.27 | 0.30 | 86 | 991.9 |
| 20260508211503 | 12 | 314 | 1.6 | 4.8 | 0.00 | 1.27 | 0.30 | 86 | 992.1 |
| 20260508211002 | 11 | 314 | 1.6 | 3.2 | 0.00 | 1.27 | 0.30 | 86 | 992.1 |
| 20260508210502 | 11 | 314 | 3.2 | 4.8 | 0.00 | 1.27 | 0.30 | 86 | 991.9 |
| 20260508210024 | 11 | 313 | 3.2 | 6.4 | 0.00 | 1.27 | 0.30 | 86 | 991.9 |
| 20260508205523 | 11 | 306 | 3.2 | 6.4 | 0.00 | 1.27 | 0.30 | 86 | 991.9 |
| 20260508205003 | 11 | 291 | 3.2 | 9.7 | 0.00 | 1.27 | 0.30 | 86 | 991.9 |
| 20260508204503 | 11 | 263 | 3.2 | 9.7 | 0.00 | 1.27 | 0.30 | 86 | 991.8 |
| 20260508204003 | 11 | 240 | 4.8 | 8.0 | 0.00 | 1.27 | 0.30 | 86 | 991.7 |
| 20260508203503 | 11 | 231 | 4.8 | 9.7 | 0.00 | 1.27 | 0.30 | 85 | 991.7 |
| 20260508203002 | 11 | 232 | 6.4 | 11.3 | 0.00 | 1.27 | 0.30 | 85 | 991.8 |
| 20260508202524 | 11 | 236 | 6.4 | 14.5 | 0.00 | 1.27 | 0.30 | 85 | 991.7 |
| 20260508202003 | 11 | 236 | 6.4 | 16.1 | 0.00 | 1.27 | 0.30 | 85 | 991.6 |
| 20260508201503 | 11 | 235 | 8.0 | 16.1 | 0.00 | 1.27 | 0.30 | 85 | 991.5 |
| 20260508201003 | 11 | 229 | 6.4 | 14.5 | 0.00 | 1.27 | 0.30 | 85 | 991.4 |
| 20260508200502 | 11 | 225 | 6.4 | 14.5 | 0.00 | 1.27 | 0.30 | 85 | 991.4 |
| 20260508200003 | 11 | 225 | 8.0 | 14.5 | 0.00 | 1.27 | 0.30 | 85 | 991.2 |
| 20260508195502 | 11 | 215 | 9.7 | 17.7 | 0.00 | 1.27 | 0.30 | 85 | 991.0 |
| 20260508195023 | 11 | 212 | 9.7 | 17.7 | 0.00 | 1.27 | 0.30 | 85 | 990.9 |
| 20260508194502 | 11 | 207 | 11.3 | 17.7 | 0.00 | 1.27 | 0.30 | 84 | 990.8 |
| 20260508194023 | 11 | 204 | 12.9 | 17.7 | 0.00 | 1.27 | 0.30 | 84 | 990.6 |
| 20260508193503 | 11 | 203 | 12.9 | 22.5 | 0.00 | 1.27 | 0.30 | 84 | 990.4 |
| 20260508193003 | 11 | 202 | 9.7 | 24.1 | 0.00 | 1.27 | 0.30 | 84 | 990.2 |
| 20260508192503 | 11 | 210 | 9.7 | 24.1 | 0.00 | 1.27 | 0.30 | 83 | 990.0 |
| 20260508192023 | 11 | 218 | 11.3 | 16.1 | 0.00 | 1.27 | 0.30 | 83 | 989.9 |
| 20260508191502 | 11 | 205 | 14.5 | 20.9 | 0.00 | 1.27 | 0.30 | 82 | 989.7 |
| 20260508191003 | 11 | 200 | 14.5 | 22.5 | 0.00 | 1.27 | 0.30 | 82 | 989.5 |
| 20260508190503 | 11 | 196 | 11.3 | 24.1 | 0.00 | 1.27 | 0.30 | 81 | 989.4 |
| 20260508190003 | 11 | 193 | 8.0 | 24.1 | 0.00 | 1.27 | 0.30 | 80 | 989.1 |
| 20260508185503 | 12 | 197 | 8.0 | 17.7 | 0.00 | 1.27 | 0.30 | 77 | 989.1 |
| 20260508185003 | 12 | 195 | 6.4 | 17.7 | 0.00 | 1.27 | 0.30 | 76 | 988.9 |
| 20260508184503 | 12 | 176 | 3.2 | 16.1 | 0.00 | 1.27 | 0.30 | 74 | 988.8 |
| 20260508184003 | 12 | 136 | 3.2 | 9.7 | 0.00 | 1.27 | 0.30 | 73 | 988.6 |
| 20260508183524 | 13 | 22 | 3.2 | 8.0 | 0.00 | 1.27 | 0.30 | 72 | 988.3 |
| 20260508183024 | 13 | 312 | 4.8 | 6.4 | 0.00 | 1.27 | 0.30 | 71 | 988.3 |
| 20260508182503 | 13 | 208 | 6.4 | 8.0 | 0.00 | 1.27 | 0.30 | 70 | 988.2 |
| 20260508182023 | 13 | 205 | 6.4 | 14.5 | 0.00 | 1.27 | 0.30 | 70 | 988.0 |
| 20260508181503 | 13 | 225 | 6.4 | 14.5 | 0.00 | 1.27 | 0.30 | 68 | 988.0 |
| 20260508181003 | 14 | 267 | 6.4 | 14.5 | 0.00 | 1.27 | 0.30 | 67 | 987.9 |
| 20260508180524 | 14 | 287 | 6.4 | 14.5 | 0.00 | 1.27 | 0.30 | 67 | 987.7 |
| 20260508180003 | 14 | 297 | 8.0 | 14.5 | 0.00 | 1.27 | 0.30 | 67 | 987.6 |
| 20260508175502 | 14 | 304 | 9.7 | 17.7 | 0.00 | 1.27 | 0.30 | 67 | 987.5 |
| 20260508175003 | 13 | 304 | 9.7 | 17.7 | 0.00 | 1.27 | 0.30 | 68 | 987.4 |
| 20260508174524 | 13 | 306 | 9.7 | 17.7 | 0.00 | 1.27 | 0.30 | 68 | 987.3 |
| 20260508174003 | 13 | 311 | 9.7 | 17.7 | 0.00 | 1.27 | 0.30 | 69 | 987.2 |
| 20260508173524 | 13 | 323 | 11.3 | 19.3 | 0.00 | 1.27 | 0.30 | 69 | 986.9 |
| 20260508173003 | 13 | 336 | 9.7 | 19.3 | 0.00 | 1.27 | 0.30 | 70 | 986.6 |
| 20260508172503 | 13 | 339 | 8.0 | 17.7 | 0.00 | 1.27 | 0.30 | 70 | 986.4 |
| 20260508172002 | 13 | 336 | 8.0 | 16.1 | 0.00 | 1.27 | 0.30 | 69 | 986.3 |
| 20260508171503 | 13 | 334 | 8.0 | 14.5 | 0.00 | 1.27 | 0.30 | 69 | 986.3 |
| 20260508171003 | 13 | 337 | 8.0 | 14.5 | 0.00 | 1.27 | 0.30 | 69 | 986.3 |
| 20260508170503 | 13 | 338 | 8.0 | 14.5 | 0.00 | 1.27 | 0.30 | 69 | 986.2 |
| 20260508170003 | 13 | 339 | 9.7 | 14.5 | 0.00 | 1.27 | 0.30 | 69 | 986.2 |
| 20260508165503 | 13 | 335 | 8.0 | 17.7 | 0.00 | 1.27 | 0.30 | 69 | 986.3 |
| 20260508165024 | 13 | 333 | 8.0 | 17.7 | 0.00 | 1.27 | 0.30 | 69 | 986.4 |
| 20260508164503 | 13 | 330 | 9.7 | 16.1 | 0.00 | 1.27 | 0.30 | 70 | 986.4 |
| 20260508164003 | 13 | 332 | 9.7 | 16.1 | 0.00 | 1.27 | 0.30 | 70 | 986.4 |
| 20260508163503 | 13 | 336 | 9.7 | 19.3 | 0.00 | 1.27 | 0.30 | 70 | 986.3 |
| 20260508163003 | 13 | 340 | 8.0 | 19.3 | 0.00 | 1.27 | 0.30 | 71 | 986.3 |
| 20260508162503 | 13 | 340 | 8.0 | 12.9 | 0.00 | 1.27 | 0.30 | 72 | 986.1 |
| 20260508162003 | 13 | 331 | 6.4 | 16.1 | 0.00 | 1.27 | 0.30 | 72 | 986.0 |
| 20260508161503 | 13 | 326 | 4.8 | 16.1 | 0.00 | 1.27 | 0.30 | 72 | 986.0 |
| 20260508161024 | 12 | 320 | 3.2 | 14.5 | 0.00 | 1.27 | 0.30 | 72 | 985.9 |
| 20260508160502 | 12 | 296 | 1.6 | 8.0 | 0.00 | 1.27 | 0.30 | 72 | 985.8 |
| 20260508160003 | 13 | 243 | 1.6 | 4.8 | 0.00 | 1.27 | 0.30 | 71 | 985.7 |
| 20260508155502 | 13 | 242 | 1.6 | 4.8 | 0.00 | 1.27 | 0.30 | 71 | 985.5 |
| 20260508155003 | 13 | 241 | 1.6 | 4.8 | 0.00 | 1.27 | 0.30 | 71 | 985.5 |
| 20260508154503 | 13 | 239 | 1.6 | 4.8 | 0.00 | 1.27 | 0.30 | 70 | 985.3 |
| 20260508154024 | 13 | 258 | 1.6 | 4.8 | 0.00 | 1.27 | 0.30 | 70 | 985.1 |
| 20260508153503 | 13 | 264 | 1.6 | 6.4 | 0.00 | 1.27 | 0.30 | 69 | 985.1 |
| 20260508153024 | 13 | 245 | 3.2 | 6.4 | 0.00 | 1.27 | 0.30 | 70 | 984.9 |
| 20260508152502 | 13 | 242 | 6.4 | 9.7 | 0.00 | 1.27 | 0.30 | 69 | 984.8 |
| 20260508152003 | 13 | 268 | 8.0 | 12.9 | 0.00 | 1.27 | 0.30 | 69 | 984.6 |
| 20260508151503 | 13 | 279 | 11.3 | 19.3 | 0.00 | 1.27 | 0.30 | 69 | 984.7 |
| 20260508151003 | 13 | 292 | 12.9 | 19.3 | 0.00 | 1.27 | 0.30 | 70 | 984.3 |
| 20260508150524 | 13 | 304 | 12.9 | 24.1 | 0.00 | 1.27 | 0.30 | 70 | 984.3 |
| 20260508150003 | 13 | 312 | 14.5 | 24.1 | 0.00 | 1.27 | 0.30 | 71 | 983.9 |
| 20260508145524 | 13 | 331 | 16.1 | 29.0 | 0.00 | 1.27 | 0.30 | 71 | 984.0 |
| 20260508145003 | 13 | 341 | 19.3 | 29.0 | 0.00 | 1.27 | 0.30 | 72 | 984.1 |
| 20260508144503 | 13 | 355 | 20.9 | 33.8 | 0.00 | 1.27 | 0.30 | 72 | 984.2 |
| 20260508144002 | 13 | 11 | 20.9 | 33.8 | 0.00 | 1.27 | 0.30 | 72 | 983.9 |
| 20260508143503 | 13 | 26 | 17.7 | 35.4 | 0.00 | 1.27 | 0.30 | 72 | 983.6 |
| 20260508143003 | 13 | 44 | 14.5 | 35.4 | 0.03 | 1.27 | 0.30 | 72 | 983.6 |
| 20260508142503 | 13 | 57 | 14.5 | 27.4 | 0.03 | 1.27 | 0.30 | 73 | 984.0 |
| 20260508142003 | 13 | 56 | 16.1 | 24.1 | 0.03 | 1.27 | 0.30 | 73 | 984.6 |
| 20260508141503 | 13 | 38 | 17.7 | 32.2 | 0.03 | 1.27 | 0.30 | 73 | 984.8 |
| 20260508141024 | 13 | 28 | 20.9 | 32.2 | 0.03 | 1.27 | 0.30 | 74 | 984.7 |
| 20260508140503 | 13 | 23 | 25.7 | 40.2 | 0.05 | 1.27 | 0.30 | 75 | 984.2 |
| 20260508140003 | 13 | 26 | 27.4 | 40.2 | 0.05 | 1.27 | 0.30 | 75 | 983.5 |
| 20260508135503 | 13 | 28 | 25.7 | 54.7 | 0.08 | 1.27 | 0.30 | 76 | 982.8 |
| 20260508135002 | 13 | 25 | 24.1 | 54.7 | 0.08 | 1.27 | 0.30 | 76 | 982.4 |
| 20260508134503 | 13 | 20 | 24.1 | 46.7 | 0.13 | 1.27 | 0.30 | 77 | 983.2 |
| 20260508134003 | 13 | 15 | 24.1 | 46.7 | 0.15 | 1.27 | 0.30 | 77 | 984.2 |
| 20260508133503 | 13 | 13 | 24.1 | 41.8 | 0.20 | 1.27 | 0.30 | 77 | 984.5 |
| 20260508133003 | 13 | 9 | 22.5 | 48.3 | 0.23 | 1.24 | 0.28 | 76 | 984.8 |
| 20260508132503 | 13 | 4 | 19.3 | 48.3 | 0.25 | 1.24 | 0.28 | 77 | 984.8 |
| 20260508132003 | 13 | 358 | 17.7 | 35.4 | 0.25 | 1.24 | 0.28 | 77 | 985.6 |
| 20260508131503 | 13 | 357 | 14.5 | 35.4 | 0.25 | 1.24 | 0.28 | 77 | 985.8 |
| 20260508131003 | 13 | 356 | 14.5 | 25.7 | 0.28 | 1.24 | 0.28 | 77 | 985.8 |
| 20260508130503 | 13 | 356 | 14.5 | 24.1 | 0.23 | 1.19 | 0.23 | 76 | 985.7 |
| 20260508130003 | 13 | 352 | 11.3 | 24.1 | 0.23 | 1.19 | 0.23 | 75 | 985.9 |
| 20260508125503 | 13 | 351 | 9.7 | 24.1 | 0.23 | 1.17 | 0.23 | 75 | 986.0 |
| 20260508125003 | 14 | 360 | 11.3 | 19.3 | 0.23 | 1.17 | 0.23 | 74 | 986.2 |
| 20260508124503 | 14 | 359 | 14.5 | 20.9 | 0.20 | 1.14 | 0.18 | 74 | 986.1 |
| 20260508124003 | 14 | 336 | 16.1 | 38.6 | 0.15 | 1.09 | 0.15 | 73 | 986.4 |
| 20260508123503 | 14 | 326 | 16.1 | 40.2 | 0.13 | 1.07 | 0.10 | 73 | 986.6 |
| 20260508123003 | 14 | 329 | 12.9 | 40.2 | 0.08 | 1.02 | 0.05 | 73 | 986.5 |
| 20260508122503 | 13 | 328 | 8.0 | 29.0 | 0.05 | 0.99 | 0.03 | 74 | 986.3 |
| 20260508122003 | 13 | 321 | 4.8 | 29.0 | 0.05 | 0.99 | 0.03 | 73 | 985.9 |
| 20260508121503 | 13 | 296 | 3.2 | 14.5 | 0.05 | 0.99 | 0.03 | 72 | 985.4 |
| 20260508121024 | 14 | 254 | 4.8 | 8.0 | 0.05 | 0.97 | 0.00 | 72 | 985.2 |
| 20260508120503 | 14 | 274 | 4.8 | 11.3 | 0.05 | 0.97 | 0.00 | 71 | 985.4 |
| 20260508120003 | 14 | 320 | 4.8 | 11.3 | 0.05 | 0.97 | 0.00 | 71 | 985.7 |
| 20260508115503 | 14 | 357 | 6.4 | 9.7 | 0.05 | 0.97 | 0.97 | 69 | 985.7 |
| 20260508115024 | 14 | 340 | 6.4 | 24.1 | 0.05 | 0.97 | 0.97 | 69 | 985.8 |
| 20260508114503 | 15 | 338 | 8.0 | 24.1 | 0.05 | 0.94 | 0.94 | 69 | 985.7 |
| 20260508114003 | 15 | 350 | 9.7 | 16.1 | 0.05 | 0.94 | 0.94 | 68 | 985.9 |
| 20260508113503 | 15 | 358 | 9.7 | 19.3 | 0.05 | 0.94 | 0.94 | 67 | 985.7 |
| 20260508113004 | 15 | 352 | 8.0 | 19.3 | 0.05 | 0.94 | 0.94 | 66 | 985.7 |
| 20260508112503 | 15 | 322 | 9.7 | 16.1 | 0.05 | 0.94 | 0.94 | 66 | 985.5 |
| 20260508112003 | 16 | 310 | 16.1 | 24.1 | 0.05 | 0.94 | 0.94 | 65 | 985.5 |
| 20260508111503 | 16 | 324 | 20.9 | 30.6 | 0.03 | 0.91 | 0.91 | 62 | 986.0 |
| 20260508111024 | 16 | 330 | 20.9 | 45.1 | 0.03 | 0.91 | 0.91 | 60 | 986.1 |
| 20260508110503 | 16 | 333 | 17.7 | 45.1 | 0.03 | 0.91 | 0.91 | 58 | 986.2 |
| 20260508110003 | 16 | 333 | 16.1 | 45.1 | 0.03 | 0.91 | 0.91 | 57 | 986.4 |
| 20260508105524 | 16 | 326 | 14.5 | 27.4 | 0.00 | 0.89 | 0.89 | 55 | 986.1 |
| 20260508105024 | 16 | 322 | 14.5 | 25.7 | 0.00 | 0.89 | 0.89 | 55 | 985.8 |
| 20260508104503 | 16 | 323 | 14.5 | 32.2 | 0.00 | 0.89 | 0.89 | 54 | 985.9 |
| 20260508104003 | 16 | 322 | 12.9 | 32.2 | 0.00 | 0.89 | 0.89 | 55 | 986.0 |
| 20260508103503 | 16 | 326 | 14.5 | 25.7 | 0.00 | 0.89 | 0.89 | 55 | 985.7 |
| 20260508103024 | 16 | 326 | 14.5 | 43.5 | 0.00 | 0.89 | 0.89 | 55 | 985.7 |
| 20260508102503 | 16 | 337 | 14.5 | 43.5 | 0.00 | 0.89 | 0.89 | 56 | 985.7 |
| 20260508102003 | 16 | 339 | 14.5 | 37.0 | 0.00 | 0.89 | 0.89 | 59 | 986.0 |